{"data":{"norad_id":43770,"intl_designator":"2018-099N","name":"FOX-1CLIFF (AO-95)","alt_names":[],"object_type":"PAYLOAD","status":"ACTIVE","operator":null,"country":"US","launch_date":"2018-12-03","launch_site_code":"AFWTR","launch_vehicle":null,"mission":null,"orbit_class":"UNKNOWN","rcs_meters":null,"size_class":null,"mass_kg":null,"dimensions":null,"purposes":["comms"],"wikipedia_slug":null,"has_3d_model":false,"image_url":null,"decayed_at":null,"tle_current":{"epoch":"2026-09-20T02:56:14.516736Z","epoch_age_seconds":47088,"freshness":"FRESH","line1":"1 43770U 18099N   26263.12239024  .00007863  00000+0  28592-3 0  9992","line2":"2 43770  97.4285 323.0885 0008479  22.9515 337.2102 15.28501039427712","mean_motion":15.28501039,"eccentricity":0.0008479,"inclination_deg":97.4285,"raan_deg":323.0885,"arg_perigee_deg":22.9515,"mean_anomaly_deg":337.2102,"bstar":0.00028592,"rev_number":42771,"period_min":94.209945774201,"perigee_km":474.47729648418,"apogee_km":486.10782133018,"semimajor_km":6858.4295589072,"source":"CELESTRAK","updated_at":"2026-09-20T09:00:45.235186Z"}}}